Weather in Mrassu

Russia / Kemerovo Oblast     52°17′41″N   88°31′00″E
temp.,
°C
wind,
m/s
gust,
m/s
humid.,
%
clouds,
%
prec.,
mm/h
press.,
hPa
HPBL,
m
29 june, wed
wed2901:00+8se21950 0.0 101113
04:00+8sse11955 0.0 101011
07:00+12se118128 0.0 1009135
10:00+20ne11550 0.0 1006835
13:00+24nnw25383 0.0 10042179
16:00+25nw34322 0.0 10021784
19:00+24nne11523 0.0 1001311
22:00+16se226643 0.0 100120
30 june, thu
thu3001:00+14sse326970 0.0 100039
04:00+14s2362100 0.0 100036
07:00+15w247636 0.2 1002150
10:00+19nw116299 0.3 1001604
13:00+18w4775100 0.6 1003855
16:00+15ese1295100 2.6 1003179
19:00+17n1185100 2.9 1003188
22:00+14sse2295100 1.9 100327
1 july, fri
fri101:00+12s119670 2.2 100311
04:00+12sw1198100 0.1 100415
07:00+13s119652 0.4 100467
10:00+16nw2290100 1.1 1004489
13:00+14wnw3497100 6.8 1005394
16:00+12w1297100 5.0 1007164
19:00+12wsw2397100 7.6 1008219
22:00+10wsw2295100 0.5 101033
2 july, sat
sat201:00+9s229450 0.6 101120
04:00+7ssw22946 0.0 101116
07:00+10sw119121 0.0 101182
10:00+16w135338 0.2 10101343
13:00+18nw454584 0.3 10092090
16:00+18w454334 0.0 10091829
19:00+17w3450100 0.1 10091373
22:00+12w0070100 0.0 101110
3 july, sun
sun301:00+10sse1178100 0.1 101018
04:00+10sse218789 0.4 101030
07:00+12s118966 0.9 101041
10:00+16wnw12565 0.8 10101286
13:00+17nw334991 1.1 10091532
16:00+20nnw133872 0.0 10072287
19:00+18nne22472 0.0 1007835
22:00+10ese117698 0.0 100811